Regional Weather Roundup
Issued by NWS

Home | Current Version | Previous Version | Text Only | Print | Product List | Glossary On
Versions: 1 2 3 4 5 6 7 8 9 10 11 12 13 14 15 16 17 18 19 20 21 22 23 24 25 26 27 28 29 30 31 32 33 34 35 36 37 38 39 40 41 42 43 44 45 46 47 48 49 50
000
ASUS44 KBMX 211510
RWRAL

ALABAMA REGIONAL WEATHER ROUNDUP
NATIONAL WEATHER SERVICE BIRMINGHAM AL
1000 AM CDT TUE APR 21 2015

NOTE: "FAIR" INDICATES FEW OR NO CLOUDS BELOW 12,000 FEET
WITH NO SIGNIFICANT WEATHER AND/OR OBSTRUCTIONS TO VISIBILITY.

THE REMARK "TC" DENOTES TEMPERATURE IN DEGREES CELSIUS.

ALZ001>011-014-016>018-020-211600-
NORTH ALABAMA

CITY           SKY/WX    TMP DP  RH WIND       PRES   REMARKS
MUSCLE SHOALS  SUNNY     61  37  41 NW10      30.07R
HUNTSVILLE     MOSUNNY   61  40  45 VRB6      30.06R
DECATUR        SUNNY     60  36  40 NW9       30.07R
HALEYVILLE       N/A     59  31  34 CALM      30.09R
GADSDEN        SUNNY     63  37  39 NW10G17   30.04R
$$

ALZ012-013-022-023-030>036-040>044-211600-
WEST CENTRAL ALABAMA

CITY           SKY/WX    TMP DP  RH WIND       PRES   REMARKS
TUSCALOOSA     SUNNY     64  38  38 N8        30.09R
$$

ALZ015-024>027-033>036-040>044-211600-
CENTRAL ALABAMA

CITY           SKY/WX    TMP DP  RH WIND       PRES   REMARKS
BIRMINGHAM     SUNNY     62  39  42 NW12      30.09R
MONTGOMERY     SUNNY     66  46  48 W8        30.07R
SHELBY CO ARPT SUNNY     63  41  44 NW7       30.07R
MAXWELL AFB    SUNNY     65  47  52 N5        30.06R
GREENVILLE     FAIR      66  44  45 N5        30.07R
$$

ALZ019-021-028-029-037-038-045>048-211600-
EAST CENTRAL ALABAMA

CITY           SKY/WX    TMP DP  RH WIND       PRES   REMARKS
ANNISTON       SUNNY     63  37  38 W7        30.05R
ALEXANDER CITY SUNNY     64  43  45 SW5       30.05R
AUBURN         NOT AVBL
$$

ALZ051>064-211600-
SOUTHWEST ALABAMA

CITY           SKY/WX    TMP DP  RH WIND       PRES   REMARKS
MOBILE         MOSUNNY   68  46  45 NE9       30.08R
BROOKLEY FIELD SUNNY     67  48  50 NE7       30.08S
EVERGREEN      SUNNY     66  48  52 NW6       30.08R
$$

ALZ049-050-065>069-211600-
SOUTHEAST ALABAMA

CITY           SKY/WX    TMP DP  RH WIND       PRES   REMARKS
DOTHAN         SUNNY     66  47  50 N6        30.09R
OZARK          SUNNY     66  42  42 VRB5      30.06R
TROY           SUNNY     68  46  45 NW9       30.07R
EUFAULA        FAIR      66  47  50 VRB3      30.05R
$$


USA.gov is the U.S. government's official web portal to all federal, state and local government web resources and services.